Location: Unspecified
(0.0000°N, 0.0000°E)
Time: 16:35:09
(UTC+00:00)

Vanguard 3 - Pass Details

Date: 03 February 2023
Orbit: 509 x 3249 km, 33.3° (Epoch: 20 March)

Event Time Altitude Azimuth Distance (km) Brightness Sun altitude
Rises 03:15:38 0° 301° (WNW) 7,169 - -42.2°
Reaches altitude 10° 03:20:28 10° 300° (WNW) 6,184 - -41.1°
Exits shadow 03:36:15 60° 273° (W) 3,229 9.7 -37.4°
Maximum altitude 03:40:09 72° 218° (SW) 2,869 9.6 -36.5°
Drops below altitude 10° 03:53:31 10° 135° (SE) 4,403 11.6 -33.4°
Sets 03:56:21 0° 132° (SE) 5,093 12.1 -32.7°
